DELTA 1 R/B, 3616

Orbit data source: Space-Track

DELTA 1 R/B, 3616 is space debris in SSO originally from a launch on Sun, 15 Dec 1968 UTC launched from the Air Force Western Test Range (AFWTR). Debris objects in space refer to the collection of defunct objects orbiting the Earth. Examples of debris include non-operational satellites, rocket bodies, and fragments generated from explosions, collisions, or faulty payload assembly.

Loading next visibility...
Identifier
3616, 1968-114B
Orbit
SSO
Country
Flag of USUS
Related business
Manufacturer
Aerojet
Mission
Spacecraft
Bus & Motor
ABLESTAR, Unknown motor
Mass
~785 kg wet, ~785 kg dry
Launch date (UTC)
1968-12-15 (57 years ago)
Launch vehicle
Unknown
Launch site
Air Force Western Test Range (AFWTR)
Object type
Payload
Rocket body
Debris
Shape & HBR
Unknown
Radar Cross Section
Large (>1 m²)

Expand to show TLE details & history
Last TLE update: 1 day ago

TLE from 1 day ago
0 DELTA 1 R/B
1 03616U 68114B   25301.46016453 -.00000008  00000-0  23314-3 0  9991
2 03616 101.6528 247.4947 0013701 110.2923   2.3661 12.51397261599613
Epoch: 2025-10-28T11:02Z
TLE epoch observation values (Epoch: 2025-10-28T11:02:38.215Z)
Latitude
64.74125°
Longitude
-109.42971°
Altitude
1,458.924 km
Speed
7.144 km/s
True Right ascension
06h 13m 06s
True Declination
64° 37' 13"
Sunlit
Object was in daylight at epoch
Visualization orbit readout
Latitude
Unknown
Longitude
Unknown
Altitude
Unknown
Speed
Unknown
Apparent Right ascension
Unknown
Apparent Declination
Unknown
Sunlit
N/A
Visualization observer readout
Local Sidereal Time
07:25:38
Azimuth
Unknown
Elevation
Unknown
Doppler factor
Unknown
Orbital elements
Apogee altitude
1,466.929 km
Perigee altitude
1,445.462 km
Semi-major axis
7,834.332 km
Eccentricity
0.00137
Inclination
101.6528°
RAAN
247.4947°
Arg. of periapsis
110.2923°
True anomaly
2.37259°
Mean anomaly
2.3661°
Eccentric anomaly
2.36935°
Mean motion
3.12997 °/min
Orbital period
115.02 mins
BSTAR
0.00023314
Loading maneuver chart data...
Computing Atmospheric mass density...
Loading historical data...
Loading historical data...
Loading historical data...
Loading historical data...
Loading historical data...
Loading historical data...
Loading historical data...

Documentation

Showing up to 5 results
|